Location: Observatoire
(46.1952°N, 5.3391°E)
Time: 00:53:26
(UTC+01:00)

Tiros 1 despin weight - Pass Details

Date: 18 February 2026
Orbit: 556 x 593 km, 48.2° (Epoch: 9 March)

Event Time Altitude Azimuth Distance (km) Brightness Sun altitude
Rises 21:28:16 0° 285° (WNW) 2,734 ? -34.7°
Reaches altitude 10° 21:30:47 10° 273° (W) 1,839 ? -35.1°
Enters shadow 21:31:24 13° 267° (W) 1,644 ? -35.2°
Maximum altitude 21:34:15 25° 217° (SW) 1,132 - -35.6°
Drops below altitude 10° 21:37:44 10° 161° (SSE) 1,842 - -36.2°
Sets 21:40:16 0° 148° (SSE) 2,741 - -36.6°
